Regional Weather Roundup
Issued by NWS Newport/Morehead, NC

Current Version | Previous Version | Text Only | Print | Product List | Glossary On
Versions: 1 2 3 4 5 6 7 8 9 10 11 12 13 14 15 16 17 18 19 20 21 22 23 24 25 26 27 28 29 30 31 32 33 34 35 36 37 38 39 40 41 42 43 44 45 46 47 48 49 50
000
ASUS42 KMHX 310810
RWRMHX
WEATHER ROUNDUP FOR EASTERN NORTH CAROLINA
NATIONAL WEATHER SERVICE NEWPORT/MOREHEAD CITY NC
400 AM EDT THU JUL 31 2014

NOTE: "FAIR" INDICATES FEW OR NO CLOUDS BELOW 12,000 FEET
WITH NO SIGNIFICANT WEATHER AND/OR OBSTRUCTIONS TO VISIBILITY

NCZ015>017-031-032-045>047-102-103-310900-
NORTH COAST

CITY           SKY/WX    TMP DP  RH WIND       PRES   REMARKS
EDENTON        MOCLDY    68  63  85 CALM      30.09R
ELIZABETH CITY PTCLDY    67  62  84 CALM      30.09S
KITTY HAWK     PTSUNNY   72  63  71 CALM      30.07S
MANTEO         NOT AVBL

$$

NCZ045>047-081-094-103-104-310900-
CENTRAL COAST

CITY           SKY/WX    TMP DP  RH WIND       PRES   REMARKS
FRISCO         MOCLDY    73  64  73 E5        30.07S
SWANQUARTER      N/A     68 N/A N/A NE3       30.03S

$$

NCZ095-097-098-100-101-310900-
SOUTHERN COAST

CITY           SKY/WX    TMP DP  RH WIND       PRES   REMARKS
BEAUFORT       CLEAR     70  68  93 CALM      30.07R
CEDAR ISLAND     N/A     77 N/A N/A E10       30.09S
JACKSONVILLE   PTCLDY    73  68  84 E7        30.06S
NEWPORT        NOT AVBL
PINEY ISLAND   PTSUNNY   78  69  73 E8        30.06S
WILMINGTON     PTCLDY    70  68  93 N5        30.06S


$$

NCZ011>013-027>030-043-044-078>080-089-090>093-098-310900-
COASTAL PLAIN

CITY           SKY/WX    TMP DP  RH WIND       PRES   REMARKS
AHOSKIE        MOCLDY    62  60  93 CALM      30.10S
CLINTON        CLOUDY    70  68  93 CALM      30.08F
ELIZABETHTOWN  PTCLDY    69  67  94 CALM      30.07S
GOLDSBORO      MOCLDY    68  68  98 E1        30.06F
GREENVILLE     MOCLDY    64  64 100 CALM      30.10S
HAVELOCK       PTCLDY    70  66  87 CALM      30.08S
KENANSVILLE    CLOUDY    66  64  95 CALM      30.08F
KINSTON        MOCLDY    67  65  95 CALM      30.09S
NEW BERN       MOCLDY    70  66  87 CALM      30.08S
RICHLANDS      PTCLDY    66  63  88 CALM      30.08S
ROANOKE RAPIDS NOT AVBL
ROCKY MOUNT    MOCLDY    67  64  90 CALM      30.09S
WASHINGTON     MOCLDY    66  63  90 CALM      30.08S
WHITEVILLE     PTCLDY    69  66  93 CALM      30.05F

$$

AMZ130-135-150-152-154-156-158-170-250-252-270-ANZ085-086-088-633-658-670-310900-
MARINE OBSERVATIONS

STATION/POSITION TIME  TEMP    WIND        PRES    WAVE   SWELL
                       AIR SEA DIR/SP/G            HT/PER HT/PER
                 (UTC) (F)     (DEG/KT/KT) (MB)    (FT/S) (FT/S)
CHESAPEAKE LIGHT NOT AVBL
BUOY 44014       0800   75 78  120/  6/  8 1018.7    2/ 8   2/ 8
DUCK             0800   74 76  120/  9/ 11 1018.0
2E DUCK          0800                        N/A     2/ 7
OREGON INLET     0800   74 79   90/  5/  7 1018.4
BUOY 44095       0800      78                N/A     3/ 7
20E OREGON INLET NOT AVBL
HATTERAS CG      0800   74 80   70/  4/  5 1018.5
DIAMOND BUOY     0800          VRB 10/ 14  1017.8    3/ 6   3/ 6
CAPE LOOKOUT     0700   79      80/ 12/ 14 1017.6
BEAUFORT LAB     0800   74 82   10/  4/  5 1017.5
30 SE NEW RIVER  0800   80 81   90/ 12/ 14 1017.7    3/ 7   2/ 7
5 SE WRIGHTSVILL 0700   77 81  110/ 12/ 14   N/A
BUOY 41002       0748   79 80  340/  6/  6 1016.7    3/ 6   3/ 6
BUOY 41004       0800   82 83   90/ 12/ 16 1015.2    4/ 5   2/ 6

$$


USA.gov is the U.S. government's official web portal to all federal, state and local government web resources and services.